SNUGLITE 2
1 52899U 22065F   25360.40455778  .00001448  00000-0  28615-3 0  9996
2 52899  98.1935 140.8611 0007151 198.2659 161.8287 14.63873846185710
UmKA 1 (RS40S)
1 57172U 23091G   25360.84623058  .00007583  00000-0  37156-3 0  9997
2 57172  97.5319  55.2496 0013564   6.6961 353.4451 15.18356671137836
CubeBel-2 (EU11S)
1 57175U 23091K   25360.83579337  .00014999  00000-0  61325-3 0  9993
2 57175  97.5318  57.8543 0010946   9.9909 350.1544 15.24399913138008
RS-38S
1 57189U 23091Z   25360.83668240  .00017393  00000-0  60421-3 0  9997
2 57189  97.5342  62.4273 0007527 332.8478  27.2367 15.29794620138286
SONATE-2
1 59112U 24043Q   25360.63871608  .00030234  00000-0  62273-3 0  9991
2 59112  97.5335 137.4163 0009354 113.5263 246.6970 15.45832093101128
MO-122
1 60209U 24125G   25360.56902376  .00035639  00000-0  69941-3 0  9993
2 60209  97.2505 210.9581 0015272 128.2522 232.0106 15.47125526 82745
GRBBeta
1 60237U 24128C   25360.70553551  .00005467  00000-0  38616-3 0  9991
2 60237  61.9906 100.6940 0055749  99.2284 261.5120 15.04898989 80292
Curium One
1 60242U 24128H   25360.84356027  .00009700  00000-0  59928-3 0  9994
2 60242  61.9796  94.7485 0055482  95.9475 264.7947 15.09156137 80414
ROBUSTA-3A
1 60243U 24128J   25360.78708627  .00009372  00000-0  59064-3 0  9991
2 60243  61.9870  96.5457 0055677  93.4095 267.3369 15.08455133 80384
CatSat
1 60246U 24125J   25360.83044307  .00040619  00000-0  94504-3 0  9992
2 60246  97.2299 208.0720 0034441  94.5774 265.9409 15.41560090 80698
HYPERVIEW-1G (RS66S)
1 61772U 24199AP  25360.89562924  .00048797  00000-0  89728-3 0  9991
2 61772  97.3196 230.5185 0009034 176.9850 183.1457 15.49019948107801
AO-123
1 61781U 24199AY  25360.84543391  .00012660  00000-0  40769-3 0  9995
2 61781  97.3237 226.1432 0013637 199.7007 160.3710 15.32250132107504
ZIMSAT 2
1 61783U 24199BA  25359.68218818  .00307514  00000-0  16405-2 0  9994
2 61783  97.3040 233.3458 0006173 135.3519 224.8246 15.79549926111044
HADES-R (SO-124)
1 62690U 25009CK  25360.48322973  .00199391  00000-0  20877-2 0  9991
2 62690  97.3842  83.6787 0001403 284.9868  75.1235 15.63774468 52922
HYDRA-T
1 62692U 25009CM  25360.18668736  .00224022  00000-0  21217-2 0  9999
2 62692  97.3838  83.6170 0001941 287.2706  72.8341 15.66239226 52898
JINJUSat 1B
1 63210U 25052A   25360.61314521  .00017616  00000-0  66370-3 0  9991
2 63210  97.4192 252.6864 0004078  11.1230 349.0099 15.27139464 43706
NUSHSAT 1
1 63211U 25052B   25360.59859301  .00021468  00000-0  78066-3 0  9994
2 63211  97.4170 252.8132 0004331  14.7188 345.4177 15.28267323 43711
TEVEL2-4
1 63213U 25052D   25360.67120653  .00019189  00000-0  71338-3 0  9998
2 63213  97.4085 252.4091 0004141  33.5319 326.6182 15.27562032 43713
TEVEL2-5
1 63214U 25052E   25360.61185569  .00019117  00000-0  71249-3 0  9992
2 63214  97.4094 252.3346 0004118  33.5808 326.5691 15.27480434 43701
TEVEL2-6
1 63215U 25052F   25360.68510185  .00018895  00000-0  70518-3 0  9996
2 63215  97.4096 252.3953 0004188  33.2158 326.9343 15.27436854 43716
TEVEL2-1
1 63217U 25052H   25360.59975904  .00018948  00000-0  71450-3 0  9997
2 63217  97.4068 252.1095 0004647  41.7227 318.4365 15.27092898 43696
TEVEL2-3
1 63218U 25052J   25360.20560175  .00018007  00000-0  67909-3 0  9996
2 63218  97.4070 251.7247 0004731  43.2084 316.9525 15.27099801 43632
TEVEL2-2
1 63219U 25052K   25360.46946205  .00018274  00000-0  68932-3 0  9990
2 63219  97.4071 251.9807 0004714  42.6915 317.4690 15.27088370 43677
TEVEL2-9
1 63237U 25052AD  25360.64287164  .00018257  00000-0  72021-3 0  9997
2 63237  97.4134 251.8390 0008709  43.4283 316.7640 15.25572997 43665
TEVEL2-7
1 63238U 25052AE  25360.26460767  .00016443  00000-0  65251-3 0  9990
2 63238  97.4136 251.4360 0008875  44.4270 315.7678 15.25395888 43608
TEVEL2-8
1 63239U 25052AF  25360.27047117  .00016645  00000-0  66097-3 0  9995
2 63239  97.4133 251.4255 0008871  44.6621 315.5330 15.25371209 43601
HYDRA-W
1 63490U 25052BL  25360.65104269  .00077909  00000-0  17314-2 0  9995
2 63490  97.4051 254.6489 0010295  36.5413 323.6535 15.43342776 43867
HADES-ICM (SO-125)
1 63492U 25052BN  25359.95031581  .00063987  00000-0  15389-2 0  9995
2 63492  97.4051 253.6281 0010828  40.2298 319.9748 15.41023613 43737
Dragonfly
1 65729U 98067XH  25360.45010801  .00204396  00000-0  12148-2 0  9996
2 65729  51.6248  65.3139 0008231 358.0707   2.0260 15.76805342 15320
RSP-03
1 65732U 98067XL  25360.48461428  .00145049  00000-0  10599-2 0  9995
2 65732  51.6261  66.3111 0006063 338.1349  21.9390 15.72242351 15327
GHS-01
1 65733U 98067XM  25360.49690640  .00292398  00000-0  13992-2 0  9997
2 65733  51.6280  64.1357 0009525   2.9798 357.1259 15.81335345 15354
BOTAN
1 65942U 98067XP  25360.45326459  .00109640  00000-0  10505-2 0  9993
2 65942  51.6278  69.8667 0003565 346.4862  13.6037 15.65808737 12015
CEVROSAT1
1 66309U 25248S   25359.63290355  .00013597  00000-0  66291-3 0  9994
2 66309  45.4059 330.8315 0001975 177.1820 182.9077 15.18340037  8110
BEE-1000
1 66650U 25274A   25360.70503110  .00001717  00000-0  17603-3 0  9992
2 66650  97.7406 287.6373 0011225 200.3301 159.7472 14.91708342  4484
SPIRONE
1 66657U 25274H   25360.75636749  .00003832  00000-0  37802-3 0  9992
2 66657  97.7399 287.7226 0010974 222.2811 137.7564 14.92536223  4496
K-HERO
1 66660U 25274L   25360.74615137  .00003294  00000-0  32160-3 0  9997
2 66660  97.7404 287.7384 0012868 228.4819 131.5297 14.93036689  4499
SNUGLITE-III DURI
1 66661U 25274M   25360.74328672  .00003074  00000-0  29940-3 0  9991
2 66661  97.7402 287.7409 0013493 230.0492 129.9543 14.93168140  4490
SilverSat
1 66909U 98067XV  25360.50054296  .00069652  00000-0  10737-2 0  9995
2 66909  51.6312  73.9315 0003773 313.4073  46.6603 15.53512588  3752
